GW0776 Weather Reports


time (UTC)temp
C
wind
direction
speed
KPH
gust
KPH
rain 1hr
cm
rain 24hr
cm
rain mn
cm
humidity
%
barometer
mb
20260506110511 23 188 0.0 1.6 0.00 0.00 0.00 93 1009.2
20260506110011 23 146 1.6 1.6 0.00 0.00 0.00 92 1009.1
20260506105511 23 259 0.0 8.0 0.00 0.00 0.00 92 1009.1
20260506105011 24 162 0.0 8.0 0.00 0.00 0.00 92 1009.0
20260506104511 24 134 6.4 1.6 0.00 0.00 0.00 92 1009.0
20260506104011 24 144 0.0 3.2 0.00 0.00 0.00 92 1009.1
20260506103511 24 156 0.0 3.2 0.00 0.00 0.00 92 1009.0
20260506103011 24 165 0.0 3.2 0.00 0.00 0.00 92 1009.1
20260506102011 24 181 0.0 1.6 0.00 0.00 0.00 92 1009.0
20260506101511 24 181 0.0 4.8 0.00 0.00 0.00 92 1009.1
20260506101011 24 179 0.0 4.8 0.00 0.00 0.00 92 1009.1
20260506100511 24 165 0.0 4.8 0.00 0.00 0.00 91 1009.0
20260506100011 24 147 0.0 1.6 0.00 0.00 0.00 91 1009.0
20260506095511 24 225 0.0 1.6 0.00 0.00 0.00 91 1009.0
20260506095011 24 157 0.0 8.0 0.00 0.00 0.00 91 1008.8
20260506094011 24 185 0.0 6.4 0.00 0.00 0.00 91 1008.7
20260506092511 25 213 3.2 11.3 0.00 0.00 0.00 90 1008.7
20260506092011 25 131 6.4 16.1 0.00 0.00 0.00 91 1008.7
20260506091010 25 194 0.0 11.3 0.00 0.00 0.00 91 1008.6
20260506090510 25 198 1.6 6.4 0.00 0.00 0.00 90 1008.7
20260506090011 25 142 4.8 9.7 0.00 0.00 0.00 90 1008.6
20260506085511 25 209 3.2 12.9 0.00 0.00 0.00 90 1008.7
20260506084510 25 166 0.0 8.0 0.00 0.00 0.00 90 1008.8
20260506084011 25 162 0.0 8.0 0.00 0.00 0.00 90 1008.8
20260506083510 25 160 1.6 9.7 0.00 0.00 0.00 90 1008.8
20260506083010 25 138 6.4 9.7 0.00 0.00 0.00 90 1008.8
20260506082510 25 170 3.2 6.4 0.00 0.00 0.00 90 1008.9
20260506082011 25 130 0.0 6.4 0.00 0.00 0.00 90 1008.9
20260506081010 25 224 1.6 8.0 0.00 0.00 0.00 90 1009.2
20260506073510 25 163 3.2 6.4 0.00 0.00 0.00 90 1009.5
20260506073011 25 196 1.6 8.0 0.00 0.00 0.00 89 1009.7
20260506072510 25 198 0.0 8.0 0.00 0.00 0.00 89 1009.7
20260506072010 25 168 1.6 6.4 0.00 0.00 0.00 89 1009.7
20260506071510 25 146 1.6 4.8 0.00 0.00 0.00 89 1009.8
20260506071010 25 156 1.6 12.9 0.00 0.00 0.00 89 1009.9
20260506070510 25 156 1.6 12.9 0.00 0.00 0.00 89 1009.9
20260506062011 25 152 1.6 4.8 0.00 0.00 0.00 89 1010.0
20260506061510 25 192 1.6 8.0 0.00 0.00 0.00 89 1010.0
20260506061010 25 221 3.2 9.7 0.00 0.00 0.00 89 1010.1
20260506060510 25 152 3.2 9.7 0.00 0.00 0.00 89 1010.1
20260506051011 25 127 1.6 6.4 0.00 0.00 0.00 89 1010.3
20260506045011 25 196 4.8 11.3 0.00 0.00 0.00 88 1009.9
20260506044511 25 167 1.6 9.7 0.00 0.00 0.00 88 1009.9
20260506044011 25 99 0.0 9.7 0.00 0.00 0.00 87 1010.1
20260506043511 25 145 4.8 9.7 0.00 0.00 0.00 87 1010.1
20260506042511 25 193 1.6 11.3 0.00 0.00 0.00 87 1010.2
20260506042011 25 179 1.6 11.3 0.00 0.00 0.00 87 1010.0
20260506041011 25 160 11.3 12.9 0.00 0.00 0.00 87 1009.8
20260506040511 25 169 3.2 12.9 0.00 0.00 0.00 87 1009.9
20260506040011 25 175 4.8 11.3 0.00 0.00 0.00 86 1009.8
20260506035511 25 195 3.2 12.9 0.00 0.00 0.00 86 1009.7
20260506035011 25 118 1.6 14.5 0.00 0.00 0.00 86 1009.6
20260506034511 25 147 1.6 14.5 0.00 0.00 0.00 86 1009.5
20260506034011 26 157 4.8 12.9 0.00 0.00 0.00 86 1009.6
20260506032511 26 169 9.7 17.7 0.00 0.00 0.00 85 1009.4
20260506032011 26 124 4.8 16.1 0.00 0.00 0.00 85 1009.3
20260506031011 26 163 4.8 11.3 0.00 0.00 0.00 85 1009.3
20260506030511 26 178 1.6 12.9 0.00 0.00 0.00 85 1009.3
20260506030011 26 237 1.6 12.9 0.00 0.00 0.00 84 1009.2
20260506025511 26 269 1.6 14.5 0.00 0.00 0.00 84 1009.1
20260506025011 26 163 4.8 14.5 0.00 0.00 0.00 84 1009.0
20260506024511 26 217 4.8 8.0 0.00 0.00 0.00 84 1008.9
20260506024010 26 180 1.6 12.9 0.00 0.00 0.00 84 1008.7
20260506023511 26 130 1.6 12.9 0.00 0.00 0.00 84 1008.6
20260506023011 26 196 0.0 12.9 0.00 0.00 0.00 84 1008.6
20260506022510 26 210 3.2 12.9 0.00 0.00 0.00 83 1008.5
20260506021511 26 159 3.2 12.9 0.00 0.00 0.00 83 1008.5
20260506021011 26 169 6.4 12.9 0.00 0.00 0.00 83 1008.4
20260506020011 26 194 3.2 12.9 0.00 0.00 0.00 82 1008.4
20260506015511 26 200 1.6 6.4 0.00 0.00 0.00 82 1008.4
20260506015011 26 214 1.6 6.4 0.00 0.00 0.00 81 1008.3
20260506014510 26 185 0.0 6.4 0.00 0.00 0.00 81 1008.2
20260506014011 26 186 0.0 8.0 0.00 0.00 0.00 81 1008.2
20260506013511 26 200 4.8 8.0 0.00 0.00 0.00 81 1008.1
20260506013010 26 161 0.0 19.3 0.00 0.00 0.00 80 1008.1
20260506012510 26 144 3.2 19.3 0.00 0.00 0.00 80 1008.1
20260506012010 26 138 1.6 9.7 0.00 0.00 0.00 80 1008.0
20260506011511 26 237 4.8 9.7 0.00 0.00 0.00 80 1007.8
20260506011011 26 152 4.8 11.3 0.00 0.00 0.00 80 1007.7
20260506010511 26 203 1.6 11.3 0.00 0.00 0.00 80 1007.6
20260506010010 26 202 3.2 11.3 0.00 0.00 0.00 80 1007.7
20260506005511 26 180 1.6 11.3 0.00 0.00 0.00 80 1007.7
20260506004510 27 144 3.2 6.4 0.00 0.00 0.00 79 1007.7
20260506004011 27 176 3.2 9.7 0.00 0.00 0.00 79 1007.5
20260506003510 27 156 3.2 22.5 0.00 0.00 0.00 79 1007.7
20260506003010 27 115 1.6 22.5 0.00 0.00 0.00 79 1007.6
20260506002510 27 151 8.0 22.5 0.00 0.00 0.00 79 1007.6
20260506002010 27 192 3.2 11.3 0.00 0.00 0.00 79 1007.4
20260506001510 27 145 4.8 8.0 0.00 0.00 0.00 79 1007.4
20260506001010 27 274 1.6 11.3 0.00 0.00 0.00 79 1007.3
20260506000510 27 173 6.4 16.1 0.00 0.00 0.00 79 1007.4
20260506000010 27 189 1.6 16.1 0.00 0.00 0.00 79 1007.4
20260505235510 27 133 4.8 12.9 0.00 0.00 0.00 79 1007.5
20260505235010 27 169 6.4 12.9 0.00 0.00 0.00 79 1007.3
20260505234510 27 179 3.2 14.5 0.00 0.00 0.00 79 1007.3
20260505234010 27 162 6.4 14.5 0.00 0.00 0.00 79 1007.3
20260505233510 27 125 3.2 12.9 0.00 0.00 0.00 79 1007.3
20260505232010 27 164 8.0 12.9 0.00 0.00 0.00 78 1007.3
20260505230510 28 202 6.4 9.7 0.00 0.00 0.00 76 1007.4
20260505230011 28 123 4.8 12.9 0.00 0.00 0.00 77 1007.4
20260505225511 28 197 0.0 12.9 0.00 0.00 0.00 76 1007.4
20260505224511 28 175 4.8 16.1 0.00 0.00 0.00 75 1007.2
20260505224011 28 184 3.2 16.1 0.00 0.00 0.00 75 1007.2
20260505223011 28 112 3.2 8.0 0.00 0.00 0.00 75 1007.4
20260505222511 28 171 1.6 8.0 0.00 0.00 0.00 75 1007.3
20260505222011 28 198 3.2 8.0 0.00 0.00 0.00 75 1007.4
20260505221511 28 146 3.2 8.0 0.00 0.00 0.00 75 1007.4
20260505221011 28 193 3.2 9.7 0.00 0.00 0.00 75 1007.4
20260505220511 28 152 3.2 9.7 0.00 0.00 0.00 75 1007.4
20260505220011 28 113 1.6 6.4 0.00 0.00 0.00 76 1007.5
20260505215511 28 156 1.6 12.9 0.00 0.00 0.00 76 1007.7
20260505214511 29 118 4.8 14.5 0.00 0.00 0.00 75 1007.7
20260505214011 29 136 3.2 8.0 0.00 0.00 0.00 75 1007.8
20260505213511 29 191 1.6 8.0 0.00 0.00 0.00 75 1007.8
20260505213011 29 237 1.6 11.3 0.00 0.00 0.00 75 1007.9
20260505212011 29 213 3.2 9.7 0.00 0.00 0.00 74 1008.0
20260505211511 29 188 0.0 4.8 0.00 0.00 0.00 74 1008.0
20260505211011 29 215 3.2 6.4 0.00 0.00 0.00 74 1008.1
20260505210511 29 329 0.0 6.4 0.00 0.00 0.00 73 1008.2
20260505210011 29 246 0.0 14.5 0.00 0.00 0.00 74 1008.2
20260505205011 29 179 3.2 9.7 0.00 0.00 0.00 74 1008.3
20260505204011 29 215 3.2 9.7 0.00 0.00 0.00 74 1008.4
20260505203511 29 117 3.2 11.3 0.00 0.00 0.00 74 1008.5
20260505203010 29 174 0.0 17.7 0.00 0.00 0.00 75 1008.5
20260505202511 29 214 3.2 17.7 0.00 0.00 0.00 75 1008.6
20260505202011 29 195 1.6 8.0 0.00 0.00 0.00 76 1008.8
20260505201511 28 167 0.0 8.0 0.00 0.00 0.00 76 1008.7
20260505200510 28 177 3.2 11.3 0.00 0.00 0.00 75 1009.0
20260505200010 29 186 4.8 12.9 0.00 0.00 0.00 76 1009.0
20260505195511 29 179 3.2 12.9 0.00 0.00 0.00 75 1009.0
20260505194511 28 215 0.0 8.0 0.00 0.00 0.00 77 1009.2
20260505194010 28 246 1.6 14.5 0.00 0.00 0.00 78 1009.2
20260505193510 28 212 1.6 14.5 0.00 0.00 0.00 77 1009.1
20260505193010 28 273 3.2 9.7 0.00 0.00 0.00 78 1009.2
20260505192510 28 94 1.6 12.9 0.00 0.00 0.00 79 1009.3
20260505192010 27 181 1.6 12.9 0.00 0.00 0.00 80 1009.4
20260505191510 27 246 0.0 9.7 0.00 0.00 0.00 79 1009.3
20260505191010 27 144 1.6 9.7 0.00 0.00 0.00 78 1009.4
20260505190511 27 331 1.6 9.7 0.00 0.00 0.00 79 1009.4
20260505190010 27 164 1.6 9.7 0.00 0.00 0.00 78 1009.5
20260505185511 27 234 1.6 9.7 0.00 0.00 0.00 78 1009.4
20260505185011 28 202 1.6 11.3 0.00 0.00 0.00 78 1009.4
20260505184510 28 84 3.2 11.3 0.00 0.00 0.00 77 1009.4
20260505184010 28 159 4.8 9.7 0.00 0.00 0.00 78 1009.5
20260505183511 28 215 4.8 9.7 0.00 0.00 0.00 78 1009.5
20260505183010 27 140 1.6 6.4 0.00 0.00 0.00 78 1009.6
20260505182010 27 170 0.0 9.7 0.00 0.00 0.00 79 1009.6
20260505181510 27 73 1.6 9.7 0.00 0.00 0.00 80 1009.6
20260505181010 27 190 1.6 16.1 0.00 0.00 0.00 80 1009.6
20260505180010 27 233 4.8 8.0 0.00 0.00 0.00 81 1009.6
20260505175510 27 217 0.0 8.0 0.00 0.00 0.00 81 1009.7
20260505175010 27 262 3.2 12.9 0.00 0.00 0.00 81 1009.8
20260505174510 27 233 3.2 12.9 0.00 0.00 0.00 81 1009.8
20260505174010 27 289 1.6 14.5 0.00 0.00 0.00 81 1009.9
20260505173510 27 179 3.2 14.5 0.00 0.00 0.00 81 1009.9
20260505173010 27 134 6.4 8.0 0.00 0.00 0.00 81 1009.9
20260505172511 27 214 1.6 6.4 0.00 0.00 0.00 82 1010.0
20260505172010 26 234 3.2 6.4 0.00 0.00 0.00 82 1010.0
20260505171510 26 110 3.2 8.0 0.00 0.00 0.00 82 1010.0
20260505170510 26 256 4.8 6.4 0.00 0.00 0.00 83 1010.1
20260505170010 26 36 0.0 8.0 0.00 0.00 0.00 83 1010.1
20260505165510 26 201 1.6 8.0 0.00 0.00 0.00 84 1010.2
20260505165010 26 142 1.6 6.4 0.00 0.00 0.00 84 1010.2
20260505164510 26 310 3.2 6.4 0.00 0.00 0.00 85 1010.3
20260505164010 26 158 0.0 6.4 0.00 0.00 0.00 85 1010.3
20260505163510 25 195 1.6 6.4 0.00 0.00 0.00 84 1010.7
20260505163011 26 148 3.2 6.4 0.00 0.00 0.00 84 1010.3
20260505162011 25 99 4.8 8.0 0.00 0.00 0.00 84 1010.2
20260505161511 25 174 4.8 8.0 0.00 0.00 0.00 84 1010.1
20260505160511 25 185 0.0 4.8 0.00 0.00 0.00 84 1010.2
20260505153011 25 135 4.8 17.7 0.00 0.00 0.00 84 1009.9
20260505152511 25 116 4.8 12.9 0.00 0.00 0.00 84 1009.9
20260505151511 25 227 1.6 8.0 0.00 0.00 0.00 84 1009.8
20260505151011 25 117 4.8 8.0 0.00 0.00 0.00 84 1009.9
20260505140511 24 160 4.8 14.5 0.00 0.00 0.00 87 1009.6
20260505125011 23 136 1.6 14.5 0.00 0.00 0.00 90 1009.0
20260505124510 23 159 1.6 8.0 0.00 0.00 0.00 90 1009.1
20260505124010 22 143 0.0 4.8 0.00 0.00 0.00 90 1009.4
20260505123510 22 244 0.0 4.8 0.00 0.00 0.00 90 1009.6
20260505123010 22 188 0.0 4.8 0.00 0.00 0.00 91 1009.4
20260505122010 22 164 0.0 0.0 0.00 0.00 0.00 90 1009.5
20260505121510 22 156 0.0 0.0 0.00 0.00 0.00 90 1009.3
20260505121010 22 128 0.0 3.2 0.00 0.00 0.00 90 1009.4
20260505120510 22 131 0.0 3.2 0.00 0.00 0.00 90 1009.0
20260505120010 22 179 1.6 4.8 0.00 0.00 0.00 91 1009.0
20260505115510 22 215 1.6 4.8 0.00 0.00 0.00 90 1008.9
20260505115010 22 213 1.6 4.8 0.00 0.00 0.00 90 1008.9
20260505114510 22 164 1.6 4.8 0.00 0.00 0.00 90 1009.0
20260505114010 22 121 0.0 4.8 0.00 0.00 0.00 90 1009.1
20260505113510 22 146 1.6 4.8 0.00 0.00 0.00 90 1009.3
20260505113010 22 203 0.0 4.8 0.00 0.00 0.00 90 1009.1
20260505112510 22 148 0.0 3.2 0.00 0.00 0.00 90 1009.2
20260505112010 22 350 0.0 6.4 0.00 0.00 0.00 90 1009.1
20260505111510 22 206 1.6 6.4 0.00 0.00 0.00 90 1009.1
20260505111010 22 174 1.6 8.0 0.00 0.00 0.00 90 1009.0